Wind_Speed
12 13 13 13 13 13 12 13 13 10 6 4 4 6 10 14 14 10 11 8 8 6 8 6 4 3 1 3 3 4 4 3 5 5 5 7 6 5 4 5 6 6 8 6 10
13 13 13 13 13 12 12 11 11 8 3 2 4 9 14 20 13 17 11 9 9 8 7 6 5 4 1 3 3 4 3 6 5 7 7 7 7 7 7 5 8 10 10 10 9
13 13 13 13 13 13 12 9 7 8 4 4 5 10 13 10 4 11 9 9 9 8 6 6 5 4 4 4 8 5 6 3 6 7 9 9 8 6 7 2 8 9 10 12 11
14 14 13 13 15 15 11 6 4 9 4 4 7 11 7 5 2 10 10 10 10 12 7 5 4 3 3 6 5 1 5 6 3 6 8 8 8 2 8 3 3 6 8 9 9
14 14 13 13 17 14 10 6 5 7 6 8 11 12 8 10 8 9 10 11 10 9 10 6 8 4 4 4 2 5 5 5 5 2 4 6 3 0 4 3 3 6 9 10 9
14 13 14 13 16 12 9 8 8 8 11 13 12 8 4 11 7 10 10 10 10 10 10 10 6 4 5 4 5 4 4 2 4 3 6 9 4 6 3 2 3 7 8 10 10
16 15 15 13 15 10 10 8 9 11 13 13 18 18 21 9 9 11 9 9 9 9 7 8 5 5 3 2 4 3 3 4 5 9 5 15 10 9 5 3 11 7 4 6 7
16 16 14 13 13 7 8 7 8 10 11 9 11 12 9 11 9 11 9 6 7 7 7 6 3 4 5 2 2 3 4 5 10 8 6 11 10 5 7 7 13 11 4 3 4
15 14 12 13 12 6 8 9 9 9 8 7 8 4 7 9 12 12 10 7 4 3 8 6 4 3 5 7 6 3 8 10 8 4 7 7 15 9 15 10 13 9 5 2 2
13 13 11 13 12 9 17 16 13 9 9 10 7 7 9 10 17 14 8 9 5 7 2 6 1 4 11 11 6 11 12 10 11 11 12 14 18 13 20 7 8 4 0 3 6
12 12 10 13 13 5 5 1 1 7 25 14 12 14 7 7 11 18 15 7 7 4 9 7 8 9 12 11 10 11 13 14 12 8 17 11 21 18 10 3 1 1 4 6 9
12 12 11 8 12 10 4 4 9 13 15 14 15 12 10 9 6 24 19 9 9 11 9 6 10 8 8 6 11 7 13 13 12 15 20 19 26 21 5 4 1 0 7 7 10
12 13 13 4 12 14 11 15 20 11 5 7 9 11 10 10 10 18 21 9 8 10 10 10 8 10 10 10 15 14 10 16 21 25 22 15 16 8 6 7 5 2 5 9 11
12 12 12 6 7 8 11 10 8 4 5 5 7 10 14 3 5 17 20 7 6 9 7 7 7 10 6 7 11 11 9 17 19 18 11 17 9 13 10 7 5 8 12 13 14
11 12 10 10 5 10 5 2 8 1 4 5 6 7 10 9 11 16 15 7 7 6 4 5 8 8 7 7 8 8 18 19 20 18 15 6 5 2 9 9 4 8 13 19 21
12 12 11 7 10 12 8 4 6 4 3 4 4 9 3 13 7 11 14 9 3 1 7 6 3 5 7 8 3 11 16 24 10 5 7 5 6 11 7 7 8 14 19 23 23
12 11 10 10 7 11 7 2 5 4 3 4 4 5 4 8 8 10 11 17 9 6 9 1 4 1 7 10 4 15 14 7 5 6 14 2 14 18 11 6 5 19 26 24 29
11 11 8 11 14 11 4 5 2 2 5 1 3 3 4 10 7 9 3 7 15 11 6 6 3 3 8 5 7 12 6 3 6 8 18 22 8 3 6 3 13 27 23 28 28
11 9 9 14 11 8 5 3 5 4 3 4 2 2 3 4 4 5 7 6 9 14 9 7 3 3 3 5 4 6 5 6 10 18 14 9 15 5 4 14 27 25 28 29 28
9 3 10 11 8 9 3 4 3 4 4 3 4 4 5 6 5 7 6 4 3 9 11 4 9 2 3 8 7 6 6 3 4 8 16 11 22 19 21 24 22 25 29 26 28
7 1 13 8 10 6 4 5 4 5 2 6 3 2 5 5 5 4 4 3 5 8 6 8 3 5 7 5 10 8 8 3 10 10 16 19 12 22 27 20 22 27 27 27 25
5 1 15 7 2 6 5 4 3 3 5 4 4 5 4 4 3 1 4 5 4 8 7 5 6 7 20 7 3 2 5 7 9 16 16 16 19 21 22 27 26 28 27 25 25
3 3 11 7 3 4 6 6 6 2 6 2 3 5 2 2 2 2 2 3 4 7 9 10 1 8 1 5 5 7 14 17 16 14 19 16 15 20 29 23 28 24 26 26 26
2 1 7 11 7 6 6 5 4 6 5 5 4 1 1 1 3 1 1 2 3 7 6 5 6 10 11 18 16 17 21 19 16 12 18 19 25 24 23 21 23 25 26 29 29
5 4 3 3 8 9 5 2 6 3 2 2 2 2 3 1 2 1 1 4 2 2 0 7 7 12 14 18 20 20 21 20 15 19 18 21 23 19 16 20 25 30 31 33 32
3 3 6 4 4 4 2 3 6 6 2 1 2 4 2 1 3 3 5 3 3 2 6 8 5 14 14 18 14 23 24 16 11 17 20 25 27 25 29 27 29 31 30 36 31
4 6 1 1 2 1 2 6 6 8 4 4 5 3 1 4 4 5 7 9 11 10 8 6 6 10 9 16 21 12 10 10 15 16 21 19 13 26 23 29 30 34 23 31 33
Wind_Direction
10 7 4 1 359 355 350 348 349 347 352 19 53 85 105 94 77 67 52 46 42 40 36 345 358 317 9 5 4 303 262 42 39 352 78 21 345 28 333 305 48 38 23 4 342
11 6 3 359 357 353 348 347 355 4 14 62 86 110 114 105 89 56 41 34 31 30 30 17 5 358 31 4 4 342 323 40 15 33 13 352 342 335 315 3 20 358 0 354 354
6 3 1 359 357 353 348 348 11 14 49 115 116 132 131 127 111 21 19 29 31 32 352 355 345 1 35 23 15 12 42 22 41 22 347 330 326 329 324 108 25 13 15 22 32
4 6 4 2 359 356 358 8 16 19 61 117 127 138 102 29 34 356 20 26 33 30 5 3 3 19 36 43 14 206 50 21 8 346 332 333 320 73 58 75 45 35 22 20 24
11 11 11 12 4 6 17 29 40 31 78 112 125 127 88 72 47 7 25 29 16 20 24 16 31 1 43 31 38 40 23 340 344 340 338 313 337 143 98 124 45 15 8 11 15
17 17 15 18 11 21 31 60 56 74 97 105 110 92 66 80 22 7 31 21 29 35 33 41 24 19 41 28 9 351 323 51 55 50 33 335 298 218 118 148 11 352 2 11 18
18 19 17 19 15 38 51 71 75 83 101 106 102 90 78 64 16 11 12 22 28 34 32 24 22 11 333 171 352 322 170 165 54 4 9 331 253 220 120 327 318 328 358 8 21
15 19 20 20 16 49 53 76 87 107 102 102 89 62 73 36 34 17 21 22 19 35 35 40 47 33 25 327 214 308 255 336 63 11 28 344 290 94 231 339 324 326 318 339 11
12 16 22 25 23 54 59 87 86 100 100 102 51 89 67 24 25 31 27 21 358 357 17 22 37 33 351 303 218 95 331 331 336 148 344 339 300 298 304 324 317 316 303 308 21
10 14 24 30 38 99 90 89 80 76 87 53 50 105 51 29 26 16 18 22 7 344 287 6 13 45 32 13 19 326 325 321 314 348 330 298 279 302 302 342 319 302 330 344 353
9 16 27 34 39 68 164 66 103 50 59 67 55 82 66 359 32 19 10 357 354 358 2 16 56 31 12 14 342 318 312 310 343 347 320 292 291 290 306 304 290 318 352 6 356
12 16 23 45 40 41 170 149 134 135 78 62 64 57 42 7 10 12 21 34 16 19 350 121 58 16 343 334 327 336 324 348 318 322 318 300 298 290 106 127 150 81 7 353 343
18 18 17 53 42 56 79 118 129 126 109 56 48 36 13 25 36 5 10 354 12 28 34 46 32 351 342 15 353 341 359 338 315 316 296 309 298 115 113 143 142 110 356 351 349
13 16 20 36 33 42 56 147 151 136 175 40 20 17 0 357 59 14 9 3 19 21 11 57 25 358 33 43 355 327 349 312 303 320 321 321 292 323 149 164 200 31 7 351 343
9 12 18 36 45 40 23 119 182 277 235 30 33 11 19 46 345 6 7 18 34 25 289 75 13 12 32 4 342 326 319 297 287 284 295 279 260 149 172 181 83 20 358 342 335
12 13 16 30 22 23 23 113 131 223 92 79 39 3 53 32 33 5 21 37 25 11 68 68 61 35 0 308 258 298 317 296 274 257 256 91 322 290 344 22 7 356 333 339 333
6 9 17 29 4 358 10 98 229 4 183 55 3 358 63 22 27 17 32 47 32 337 16 319 76 107 357 326 280 343 345 333 323 275 297 40 326 284 71 61 13 351 341 339 333
357 359 16 13 356 349 6 229 6 38 39 78 342 42 56 359 53 19 11 47 29 1 305 331 246 1 11 358 311 313 350 309 296 299 302 312 270 10 111 14 343 344 335 331 331
355 8 24 359 2 10 291 37 32 33 10 355 226 277 92 49 326 329 57 45 25 19 3 330 306 166 317 316 323 15 310 344 283 272 278 268 280 333 107 350 345 343 333 332 329
3 53 357 1 23 43 20 76 85 39 353 298 13 350 353 15 343 9 29 22 36 18 348 31 295 81 338 291 214 267 356 308 274 309 306 297 306 301 341 334 343 330 328 331 326
26 332 346 14 52 42 72 64 102 50 7 4 45 57 48 13 358 14 33 89 17 357 332 330 228 312 277 338 335 306 297 238 299 286 290 304 294 335 315 338 330 327 324 327 325
31 312 356 56 34 49 66 79 88 69 46 49 60 51 51 17 357 27 22 40 30 350 347 20 309 295 295 47 40 314 331 310 306 301 295 291 287 298 327 332 325 328 327 331 328
45 11 7 52 64 86 117 91 65 74 38 62 89 28 37 53 303 340 6 89 16 357 7 0 256 307 99 155 168 325 323 306 302 298 283 289 289 312 317 326 326 336 332 328 326
27 27 27 52 46 108 119 111 107 45 64 55 98 103 138 78 56 342 307 81 347 332 324 278 263 267 277 298 316 307 301 300 297 289 294 287 296 307 312 321 328 325 328 328 325
43 58 53 45 46 75 70 99 133 128 78 101 98 81 70 99 296 140 350 314 190 32 42 357 277 294 306 306 295 294 294 298 296 292 286 293 315 339 343 329 329 326 328 325 323
38 93 75 77 95 100 62 151 160 124 137 155 189 127 110 138 357 329 341 328 308 339 329 331 290 316 307 292 322 305 300 302 315 321 311 316 305 348 340 333 327 328 325 316 327
64 115 113 122 101 220 99 140 159 136 69 86 134 155 192 45 358 331 305 294 293 307 313 309 316 320 292 329 310 294 6 325 319 326 319 314 340 329 332 319 325 320 321 322 327
Height
1527 1525 1523 1520 1518 1515 1513 1511 1508 1506 1505 1505 1504 1505 1505 1507 1508 1509 1507 1509 1507 1506 1505 1506 1506 1506 1505 1504 1503 1501 1494 1493 1499 1497 1501 1502 1500 1502 1503 1501 1503 1505 1506 1508 1508
1528 1525 1523 1521 1518 1515 1513 1510 1508 1505 1504 1504 1505 1505 1507 1507 1512 1510 1511 1509 1508 1507 1508 1508 1507 1506 1505 1504 1503 1500 1495 1504 1505 1505 1505 1504 1504 1504 1502 1500 1503 1507 1508 1509 1508
1528 1525 1523 1520 1518 1515 1512 1510 1508 1506 1504 1504 1505 1507 1508 1509 1512 1515 1512 1511 1509 1508 1508 1508 1508 1507 1505 1505 1505 1503 1503 1506 1508 1510 1509 1507 1503 1505 1503 1502 1512 1512 1511 1509 1508
1529 1526 1523 1520 1517 1514 1511 1509 1508 1506 1505 1505 1506 1508 1510 1510 1513 1517 1514 1512 1511 1510 1511 1510 1508 1507 1505 1505 1507 1502 1508 1509 1509 1510 1509 1507 1507 1503 1509 1511 1511 1511 1510 1509 1508
1529 1526 1523 1520 1517 1513 1511 1509 1509 1507 1506 1506 1508 1510 1511 1515 1520 1518 1515 1513 1513 1513 1512 1511 1509 1508 1506 1507 1507 1505 1509 1510 1510 1510 1509 1507 1505 1503 1509 1511 1512 1512 1511 1511 1510
1529 1527 1524 1521 1517 1514 1513 1511 1510 1509 1509 1510 1511 1513 1514 1517 1521 1519 1517 1517 1515 1515 1514 1513 1513 1511 1510 1510 1508 1511 1510 1509 1510 1509 1510 1509 1505 1507 1510 1512 1512 1513 1513 1513 1513
1530 1527 1524 1522 1519 1516 1514 1513 1512 1512 1512 1513 1514 1517 1516 1524 1523 1521 1520 1518 1517 1516 1516 1514 1513 1513 1513 1511 1513 1511 1506 1508 1509 1510 1510 1509 1500 1503 1505 1509 1508 1508 1511 1513 1513
1530 1527 1525 1523 1520 1518 1516 1515 1515 1515 1516 1516 1517 1519 1523 1526 1525 1523 1521 1522 1520 1518 1516 1515 1514 1515 1514 1513 1510 1506 1505 1506 1503 1511 1511 1511 1502 1497 1502 1505 1507 1508 1509 1512 1512
1531 1528 1526 1524 1521 1519 1518 1517 1517 1518 1518 1518 1520 1520 1527 1529 1527 1525 1523 1522 1521 1520 1518 1517 1517 1516 1512 1505 1503 1499 1510 1507 1507 1508 1512 1515 1509 1501 1501 1504 1504 1506 1508 1509 1509
1531 1529 1527 1525 1522 1521 1520 1520 1520 1521 1520 1520 1522 1525 1532 1534 1530 1529 1526 1524 1523 1522 1520 1520 1517 1512 1516 1513 1521 1523 1518 1513 1512 1508 1511 1512 1503 1498 1500 1506 1507 1508 1509 1510 1511
1532 1530 1527 1525 1523 1522 1521 1522 1525 1527 1525 1532 1534 1532 1534 1534 1533 1530 1527 1526 1524 1522 1521 1521 1520 1531 1532 1533 1532 1529 1524 1518 1512 1516 1514 1503 1499 1494 1496 1505 1508 1511 1511 1512 1512
1533 1530 1528 1526 1524 1522 1521 1521 1522 1529 1535 1536 1537 1537 1537 1535 1534 1533 1530 1529 1526 1525 1520 1520 1534 1537 1536 1533 1532 1528 1526 1520 1519 1517 1519 1502 1493 1487 1497 1503 1508 1510 1511 1511 1512
1534 1531 1529 1528 1527 1525 1523 1524 1525 1527 1530 1540 1539 1540 1540 1540 1541 1539 1536 1533 1531 1529 1528 1529 1542 1541 1539 1538 1539 1530 1537 1539 1536 1521 1512 1501 1487 1495 1504 1508 1511 1511 1512 1512 1512
1535 1533 1531 1528 1530 1528 1528 1528 1528 1528 1522 1543 1543 1544 1544 1541 1544 1544 1541 1541 1533 1536 1535 1540 1543 1542 1538 1540 1544 1530 1538 1536 1529 1525 1519 1510 1510 1486 1500 1504 1510 1509 1512 1513 1512
1537 1535 1532 1531 1531 1530 1531 1528 1528 1531 1524 1549 1548 1548 1547 1546 1550 1547 1545 1541 1542 1539 1536 1545 1544 1543 1542 1550 1548 1541 1541 1533 1525 1520 1512 1498 1514 1481 1493 1496 1503 1511 1515 1515 1513
1538 1536 1534 1533 1531 1531 1529 1529 1531 1530 1541 1549 1552 1550 1546 1549 1551 1550 1548 1545 1546 1542 1543 1548 1550 1551 1550 1546 1545 1542 1532 1517 1505 1514 1509 1507 1516 1491 1489 1507 1508 1515 1514 1512 1513
1539 1537 1535 1534 1534 1531 1529 1531 1526 1528 1550 1554 1555 1553 1551 1553 1552 1553 1550 1552 1554 1544 1538 1536 1547 1550 1551 1545 1538 1539 1536 1519 1508 1508 1498 1492 1510 1494 1506 1515 1517 1514 1514 1514 1512
1539 1537 1536 1534 1533 1531 1529 1529 1524 1550 1552 1558 1558 1555 1555 1560 1557 1556 1551 1556 1563 1558 1549 1549 1539 1548 1551 1551 1552 1543 1546 1537 1547 1521 1510 1510 1504 1491 1506 1510 1512 1516 1515 1514 1510
1539 1538 1538 1536 1533 1532 1534 1527 1548 1553 1560 1559 1556 1550 1555 1559 1561 1553 1565 1568 1575 1572 1566 1557 1542 1548 1552 1554 1554 1542 1542 1547 1544 1528 1523 1506 1492 1491 1506 1508 1512 1515 1513 1511 1509
1539 1539 1538 1536 1534 1533 1533 1556 1560 1566 1566 1562 1554 1560 1556 1562 1557 1557 1562 1577 1576 1579 1577 1568 1564 1550 1554 1555 1553 1556 1558 1550 1542 1544 1536 1509 1506 1504 1507 1508 1511 1513 1511 1510 1507
1540 1541 1540 1537 1536 1538 1543 1560 1567 1569 1568 1563 1561 1562 1566 1568 1567 1564 1571 1581 1582 1581 1580 1576 1574 1553 1552 1545 1553 1555 1553 1553 1551 1551 1540 1527 1510 1511 1515 1512 1513 1514 1512 1508 1506
1542 1541 1543 1540 1542 1547 1554 1562 1570 1572 1571 1571 1570 1569 1568 1573 1571 1570 1572 1578 1585 1584 1579 1580 1578 1565 1551 1553 1560 1561 1560 1563 1566 1558 1553 1547 1530 1519 1514 1514 1515 1513 1511 1508 1506
1547 1547 1545 1543 1551 1556 1565 1570 1572 1572 1574 1572 1575 1576 1577 1575 1576 1577 1579 1586 1586 1585 1584 1583 1568 1563 1540 1556 1558 1558 1564 1564 1564 1561 1556 1552 1528 1520 1519 1517 1516 1514 1512 1508 1504
1550 1550 1550 1550 1556 1557 1561 1567 1574 1579 1579 1579 1578 1578 1577 1577 1579 1582 1581 1587 1589 1588 1589 1587 1579 1575 1569 1564 1566 1570 1565 1563 1561 1560 1550 1541 1528 1521 1518 1518 1515 1514 1511 1506 1502
1552 1558 1558 1559 1562 1563 1564 1570 1573 1577 1581 1580 1580 1579 1580 1587 1580 1580 1582 1584 1585 1588 1587 1585 1581 1574 1572 1572 1568 1563 1557 1554 1554 1549 1546 1538 1530 1526 1531 1523 1517 1515 1512 1506 1499
1557 1560 1562 1568 1567 1568 1571 1571 1571 1577 1579 1582 1580 1583 1583 1582 1585 1586 1588 1586 1586 1586 1586 1588 1585 1577 1573 1559 1557 1553 1545 1541 1545 1542 1541 1538 1533 1540 1533 1526 1520 1515 1512 1505 1497
1557 1559 1563 1571 1569 1568 1568 1571 1573 1578 1584 1581 1584 1583 1586 1590 1590 1590 1591 1591 1592 1592 1590 1590 1586 1582 1567 1562 1560 1543 1553 1553 1553 1551 1550 1544 1547 1544 1535 1528 1521 1515 1513 1505 1498